Regional Weather Roundup
Issued by NWS

Home | Current Version | Previous Version | Text Only | Print | Product List | Glossary On
Versions: 1 2 3 4 5 6 7 8 9 10 11 12 13 14 15 16 17 18 19 20 21 22 23 24 25 26 27 28 29 30 31 32 33 34 35 36 37 38 39 40 41 42 43 44 45 46 47 48 49 50
000
ASUS43 KMKX 211511
RWRWI

WISCONSIN REGIONAL WEATHER ROUNDUP
NATIONAL WEATHER SERVICE MILWAUKEE/SULLIVAN WI
1000 AM CDT THU AUG 21 2014

NOTE: "FAIR" INDICATES FEW OR NO CLOUDS BELOW 12,000 FEET WITH NO
SIGNIFICANT WEATHER AND/OR OBSTRUCTIONS TO VISIBILITY.

WIZ001-002-006>008-014>016-023>028-211600-
NORTHWEST WISCONSIN

CITY           SKY/WX    TMP DP  RH WIND       PRES   REMARKS
SUPERIOR ARPT  CLOUDY    61  61  99 E12       29.86F
ASHLAND        CLOUDY    66  62  87 NE12      29.88F
HAYWARD        LGT RAIN  64  63  96 VRB5      29.88F
SIREN          PTSUNNY   69  67  92 E5        29.84R
RICE LAKE      LGT RAIN  66  64  95 SE8       29.88S
LADYSMITH      TSTM      65  64  94 E7        29.93R
EAU CLAIRE     LGT RAIN  68  68 100 E8        29.84R
MENOMONIE      CLOUDY    69  68  98 CALM      29.83R
NEW RICHMOND   CLOUDY    72  69  90 E8        29.81S
OSCEOLA        PTSUNNY   72  71  95 E10G16    29.83R
$$

WIZ003>005-009-010-017-018-211600-
NORTH CENTRAL WISCONSIN

CITY           SKY/WX    TMP DP  RH WIND       PRES   REMARKS
WOODRUFF       CLOUDY    67  64  91 E8        29.95S
RHINELANDER    CLOUDY    65  62  90 E7        29.97S
EAGLE RIVER    CLOUDY    66  62  85 SE3       29.97R
LAND O LAKES   CLOUDY    66  61  83 SE3       29.99R
PHILLIPS       CLOUDY    63  62  96 SE6       29.92R
TOMAHAWK       CLOUDY    63  62  97 CALM      29.96R FOG
MEDFORD        RAIN      63  62  99 SE5       29.95R
MERRILL        CLOUDY    65  64  99 SE7       29.95R FOG
$$

WIZ029-030-035-036-043>047-211600-
CENTRAL WISCONSIN

CITY           SKY/WX    TMP DP  RH WIND       PRES   REMARKS
WAUSAU         LGT RAIN  64  63  96 SE8       29.93R FOG
MOSINEE        CLOUDY    63  63 100 E6        29.94F VSB 3/4
MARSHFIELD     TSTM      64  63  96 S7        29.95R VSB 1/2
STEVENS POINT  DRIZZLE   63  63  97 E8        29.93S
WAUPACA        CLOUDY    69  66  91 E6        29.93F
WAUTOMA        LGT RAIN  66  64  94 E5        29.93F FOG
WISC RAPIDS    TSTM      65  64  97 S3        29.95R VSB 3/4
CAMP DOUGLAS   TSTM      66  66 100 SE8       29.94R FOG
$$

WIZ011>013-019>022-031-037>040-048>050-211600-
NORTHEAST WISCONSIN

CITY           SKY/WX    TMP DP  RH WIND       PRES   REMARKS
ANTIGO         CLOUDY    64  63  97 SE8       29.96F FOG
STURGEON BAY   PTSUNNY   66  63  88 SE7       29.98S
GREEN BAY      CLOUDY    70  63  78 SE7       29.96S
MANITOWOC      PTSUNNY   67  64  90 SE9       29.98S
APPLETON       CLOUDY    70  61  73 SE10      29.96S
CLINTONVILLE   CLOUDY    68  63  83 E5        29.94F
OSHKOSH        CLOUDY    69  65  86 SE5       29.94S
$$

WIZ032>034-041-042-053>061-211600-
SOUTHWEST WISCONSIN

CITY           SKY/WX    TMP DP  RH WIND       PRES   REMARKS
LA CROSSE      RAIN      71  68  90 S13       29.90S FOG
SPARTA         RAIN      68  67  96 S8        29.91F
VIROQUA        CLOUDY    67  67 100 E3        29.94F
BOSCOBEL       LGT RAIN  71  69  93 CALM      29.95R FOG
PRAIRIE DU CHI RAIN      70  68  93 E7        29.90S
PLATTEVILLE    PTSUNNY   71  69  94 S7        29.93F
$$

WIZ056-057-062-063-064-067-068-211600-
SOUTH CENTRAL WISCONSIN

CITY           SKY/WX    TMP DP  RH WIND       PRES   REMARKS
BARABOO/DELLS  LGT RAIN  69  65  89 E5        29.93S
LONE ROCK      TSTM      74  68  81 CALM      29.92R
WATERTOWN      CLOUDY    70  69  96 SW9       29.96R
MADISON        LGT RAIN  71  68  90 S8        29.93S
MIDDLETON      FAIR      72  70  96 CALM      29.92F
MONROE         CLOUDY    70  68  94 S9        29.94R THUNDER
JANESVILLE     SUNNY     70  68  94 CALM      29.94R
$$

WIZ051-052-058>065-066-070>072-211600-
SOUTHEAST WISCONSIN

CITY           SKY/WX    TMP DP  RH WIND       PRES   REMARKS
MILWAUKEE      CLOUDY    73  67  81 NE9       29.95S
WAUKESHA       MOSUNNY   70  64  83 SE5       29.95F
MILWAUKEE/TIMM MOSUNNY   73  64  73 E3        29.95F
RACINE         CLOUDY    75  68  78 E5        29.96F
BURLINGTON     CLOUDY    71  68  89 SW5       29.95R
KENOSHA        CLOUDY    76  68  76 S5        29.94F
FOND DU LAC    CLOUDY    70  65  84 SE5       29.94S
SHEBOYGAN      CLOUDY    70  63  78 E7        29.97S
WEST BEND      CLOUDY    70  64  83 E3        29.96R
JUNEAU         CLOUDY    69  43  38 E5        29.96R
$$

LSZ147-162-211600-
LAKE SUPERIOR

STATION/POSITION TIME  TEMP    WIND        PRES    WAVE
                       AIR SEA DIR/SP/G            HT/PER
                 (UTC) (F)     (DEG/KT/KT) (MB)    (FT/S)
W MID LAKE BUOY  1450   58 58   90/  6/  8 1014.5R   1
PORT WING        1440   64      30/ 13/ 15 1011.9F
SAXON HARBOR     1440   65        CALM     1012.9F
$$

LMZ867-665-643>646-211600-
LAKE MICHIGAN

STATION/POSITION TIME  TEMP    WIND        PRES    WAVE
                       AIR SEA DIR/SP/G            HT/PER
                 (UTC) (F)     (DEG/KT/KT) (MB)    (FT/S)
N MID LAKE BUOY  1450   64 64  150/  6/  8 1015.3F   0
NORTHPORT PIER   1400   66     130/  4/  5 1015.6R
SISTER BAY       1411   71     140/  5/  6   N/A
ALGOMA LAKESHORE 1353             CALM       N/A
KEWAUNEE LAKESHO 1400   66     100/  4/  6 1014.4R
SHEBOYGAN LAKESH 1500   66 66  100/  6/  7 1014.8S
ATWATER BUOY     1500   68     100/  6/  8 1015.4S
MILWAUKEE LAKESH 1400   69     100/  5/  5   N/A
S MID LAKE BUOY  1350   69 68  190/  4/  6 1015.3R   0
KENOSHA   LAKESH 1500   72     110/  7/  9 1013.5F
$$

TC  - TEMPERATURE IN CELSIUS
VSB - VISIBILITY IN STATUTE MILES
WCI - WIND CHILL INDEX
HX  - HEAT INDEX




USA.gov is the U.S. government's official web portal to all federal, state and local government web resources and services.